Location: Cheyres
(46.8153°N, 6.7877°E)
Time: 19:46:53
(UTC+00:00)

UWE-3 - Visible Passes

Search period start: 26 June 2022 00:00
Search period end: 06 July 2022 00:00
Orbit: 581 x 680 km, 97.7° (Epoch: 26 June)

Date Brightness Start Highest point End Pass type
(mag) Time Alt. Az. Time Alt. Az. Time Alt. Az.
26 Jun ? 02:08:04 10° NE 02:11:25 22° E 02:14:49 10° SE visible
27 Jun ? 02:28:09 10° NNE 02:32:05 35° E 02:36:06 10° SSE visible
28 Jun ? 02:48:27 10° NNE 02:52:41 57° E 02:57:00 10° S visible
29 Jun ? 01:35:58 10° E 01:36:19 10° E 01:36:38 10° E visible
30 Jun ? 01:54:16 10° NE 01:57:04 17° E 01:59:54 10° SE visible
01 Jul ? 02:14:05 10° NE 02:17:46 26° E 02:21:29 10° SSE visible
02 Jul ? 02:34:15 10° NNE 02:38:24 41° E 02:42:36 10° S visible
03 Jul ? 02:54:36 10° NNE 02:58:58 68° ESE 03:03:24 10° S visible
04 Jul ? 01:40:47 10° ENE 01:42:39 12° E 01:44:31 10° ESE visible
05 Jul ? 02:00:08 10° NE 02:03:23 20° E 02:06:39 10° SE visible
